QPF
0.00 0.00 0.00 0.00 0.00 0.00 0.00 0.00 0.00 0.00 0.00 0.00 0.00 0.00 0.00 0.00 0.00 0.00 0.00 0.00 0.00 0.00 0.00 0.00 0.00 0.00 0.00 0.00 0.00 0.00 0.00 0.00 0.00 0.00 0.00 0.00 0.00 0.00 0.00 0.00 0.00 0.00 0.00 0.00 0.00
0.00 0.00 0.00 0.00 0.00 0.00 0.00 0.00 0.00 0.00 0.00 0.00 0.00 0.00 0.00 0.00 0.00 0.00 0.00 0.00 0.00 0.00 0.00 0.00 0.00 0.00 0.00 0.00 0.00 0.00 0.00 0.00 0.00 0.00 0.00 0.00 0.00 0.00 0.00 0.00 0.00 0.00 0.00 0.00 0.00
0.00 0.00 0.00 0.00 0.00 0.00 0.00 0.00 0.00 0.00 0.00 0.00 0.00 0.00 0.00 0.00 0.00 0.00 0.00 0.00 0.00 0.00 0.00 0.00 0.00 0.00 0.00 0.00 0.00 0.00 0.00 0.00 0.00 0.00 0.00 0.00 0.00 0.00 0.00 0.00 0.00 0.00 0.00 0.00 0.00
0.00 0.00 0.00 0.00 0.00 0.00 0.00 0.00 0.00 0.00 0.00 0.00 0.00 0.00 0.00 0.00 0.00 0.00 0.00 0.00 0.00 0.00 0.00 0.00 0.00 0.00 0.00 0.00 0.00 0.00 0.00 0.00 0.00 0.00 0.00 0.00 0.00 0.00 0.00 0.00 0.00 0.00 0.00 0.00 0.00
0.00 0.00 0.00 0.00 0.00 0.00 0.00 0.00 0.00 0.00 0.00 0.00 0.00 0.00 0.00 0.00 0.00 0.00 0.00 0.00 0.00 0.00 0.00 0.00 0.00 0.00 0.00 0.00 0.00 0.00 0.00 0.00 0.00 0.00 0.00 0.00 0.00 0.00 0.00 0.00 0.00 0.00 0.00 0.00 0.00
0.00 0.00 0.00 0.00 0.00 0.00 0.00 0.00 0.00 0.00 0.00 0.00 0.00 0.00 0.00 0.00 0.00 0.00 0.00 0.00 0.00 0.00 0.00 0.00 0.00 0.00 0.00 0.00 0.00 0.00 0.00 0.00 0.00 0.00 0.00 0.00 0.00 0.00 0.00 0.00 0.00 0.00 0.00 0.00 0.00
0.00 0.00 0.00 0.00 0.00 0.00 0.00 0.00 0.00 0.00 0.00 0.00 0.00 0.00 0.00 0.00 0.00 0.00 0.00 0.00 0.00 0.00 0.00 0.00 0.00 0.00 0.00 0.00 0.00 0.00 0.00 0.00 0.00 0.00 0.00 0.00 0.00 0.00 0.00 0.00 0.00 0.00 0.00 0.00 0.00
0.00 0.00 0.00 0.00 0.00 0.00 0.00 0.00 0.00 0.00 0.00 0.00 0.00 0.00 0.00 0.00 0.00 0.00 0.00 0.00 0.00 0.00 0.00 0.00 0.00 0.00 0.00 0.00 0.00 0.00 0.00 0.00 0.00 0.00 0.00 0.00 0.00 0.00 0.00 0.00 0.00 0.00 0.00 0.00 0.00
0.00 0.00 0.00 0.00 0.00 0.00 0.00 0.00 0.00 0.00 0.00 0.00 0.00 0.00 0.00 0.00 0.00 0.00 0.00 0.00 0.00 0.00 0.00 0.00 0.00 0.00 0.00 0.00 0.00 0.00 0.00 0.00 0.00 0.00 0.00 0.00 0.00 0.00 0.00 0.00 0.00 0.00 0.00 0.00 0.00
0.00 0.00 0.00 0.00 0.00 0.00 0.00 0.00 0.00 0.00 0.00 0.00 0.00 0.00 0.00 0.00 0.00 0.00 0.00 0.00 0.00 0.00 0.00 0.00 0.00 0.00 0.00 0.00 0.00 0.00 0.00 0.00 0.00 0.00 0.00 0.00 0.00 0.00 0.00 0.00 0.00 0.00 0.00 0.00 0.00
0.00 0.00 0.00 0.00 0.00 0.00 0.00 0.00 0.00 0.00 0.00 0.00 0.00 0.00 0.00 0.00 0.00 0.00 0.00 0.00 0.00 0.00 0.00 0.00 0.00 0.00 0.00 0.00 0.00 0.00 0.00 0.00 0.00 0.00 0.00 0.00 0.00 0.00 0.00 0.00 0.00 0.00 0.00 0.00 0.00
0.00 0.00 0.00 0.00 0.00 0.00 0.00 0.00 0.00 0.00 0.00 0.00 0.00 0.00 0.00 0.00 0.00 0.00 0.00 0.00 0.00 0.00 0.00 0.00 0.00 0.00 0.00 0.00 0.00 0.00 0.00 0.00 0.00 0.00 0.00 0.00 0.00 0.00 0.00 0.00 0.00 0.00 0.00 0.00 0.00
0.00 0.00 0.00 0.00 0.00 0.00 0.00 0.00 0.00 0.00 0.00 0.00 0.00 0.00 0.00 0.00 0.00 0.00 0.00 0.00 0.00 0.00 0.00 0.00 0.00 0.00 0.00 0.00 0.00 0.00 0.00 0.00 0.00 0.00 0.00 0.00 0.00 0.00 0.00 0.00 0.00 0.00 0.00 0.00 0.00
0.00 0.00 0.00 0.00 0.00 0.00 0.00 0.00 0.00 0.00 0.00 0.00 0.00 0.00 0.00 0.00 0.00 0.00 0.00 0.00 0.00 0.00 0.00 0.00 0.00 0.00 0.00 0.00 0.00 0.00 0.00 0.00 0.00 0.00 0.00 0.00 0.00 0.00 0.00 0.00 0.00 0.00 0.00 0.00 0.00
0.00 0.00 0.00 0.00 0.00 0.00 0.00 0.00 0.00 0.00 0.00 0.00 0.00 0.00 0.00 0.00 0.00 0.00 0.00 0.00 0.00 0.00 0.00 0.00 0.00 0.00 0.00 0.00 0.00 0.00 0.00 0.00 0.00 0.00 0.00 0.00 0.00 0.00 0.00 0.00 0.00 0.00 0.00 0.00 0.00
0.00 0.00 0.00 0.00 0.00 0.00 0.00 0.00 0.00 0.00 0.00 0.00 0.00 0.00 0.00 0.00 0.00 0.00 0.00 0.00 0.00 0.00 0.00 0.00 0.00 0.00 0.00 0.00 0.00 0.00 0.00 0.00 0.00 0.00 0.00 0.00 0.00 0.00 0.00 0.00 0.00 0.00 0.00 0.00 0.00
0.00 0.00 0.00 0.00 0.00 0.00 0.00 0.00 0.00 0.00 0.00 0.00 0.00 0.00 0.00 0.00 0.00 0.00 0.00 0.00 0.00 0.00 0.00 0.00 0.00 0.00 0.00 0.00 0.00 0.00 0.00 0.00 0.00 0.00 0.00 0.00 0.00 0.00 0.00 0.00 0.00 0.00 0.00 0.00 0.00
0.00 0.00 0.00 0.00 0.00 0.00 0.00 0.00 0.00 0.00 0.00 0.00 0.00 0.00 0.00 0.00 0.00 0.00 0.00 0.00 0.00 0.00 0.00 0.00 0.00 0.00 0.00 0.00 0.00 0.00 0.00 0.00 0.00 0.00 0.00 0.00 0.00 0.00 0.00 0.00 0.00 0.00 0.00 0.00 0.00
0.00 0.00 0.00 0.00 0.00 0.00 0.00 0.00 0.00 0.00 0.00 0.00 0.00 0.00 0.00 0.00 0.00 0.00 0.00 0.00 0.00 0.00 0.00 0.00 0.00 0.00 0.00 0.00 0.00 0.00 0.00 0.00 0.00 0.00 0.00 0.00 0.00 0.00 0.00 0.00 0.00 0.00 0.00 0.00 0.00
0.00 0.00 0.00 0.00 0.00 0.00 0.00 0.00 0.00 0.00 0.00 0.00 0.00 0.00 0.00 0.00 0.00 0.00 0.00 0.00 0.00 0.00 0.00 0.00 0.00 0.00 0.00 0.00 0.00 0.00 0.00 0.00 0.00 0.00 0.00 0.00 0.00 0.00 0.00 0.00 0.00 0.00 0.00 0.00 0.00
0.00 0.00 0.00 0.00 0.00 0.00 0.00 0.00 0.00 0.00 0.00 0.00 0.00 0.00 0.00 0.00 0.00 0.00 0.00 0.00 0.00 0.00 0.00 0.00 0.00 0.00 0.00 0.00 0.00 0.00 0.00 0.00 0.00 0.00 0.00 0.00 0.00 0.00 0.00 0.00 0.00 0.00 0.00 0.00 0.00
0.00 0.00 0.00 0.00 0.00 0.00 0.00 0.00 0.00 0.00 0.00 0.00 0.00 0.00 0.00 0.00 0.00 0.00 0.00 0.00 0.00 0.00 0.00 0.00 0.01 0.01 0.01 0.00 0.00 0.00 0.00 0.00 0.00 0.00 0.00 0.00 0.00 0.00 0.00 0.00 0.00 0.00 0.00 0.00 0.00
0.00 0.00 0.00 0.00 0.00 0.00 0.00 0.00 0.00 0.00 0.00 0.00 0.00 0.00 0.00 0.00 0.02 0.01 0.00 0.00 0.00 0.00 0.00 0.00 0.01 0.01 0.00 0.00 0.00 0.00 0.00 0.00 0.00 0.00 0.00 0.00 0.00 0.00 0.00 0.00 0.00 0.00 0.00 0.00 0.00
0.00 0.00 0.00 0.00 0.00 0.00 0.00 0.00 0.00 0.00 0.00 0.00 0.00 0.01 0.03 0.02 0.02 0.03 0.01 0.01 0.01 0.00 0.00 0.00 0.00 0.00 0.00 0.00 0.00 0.00 0.00 0.00 0.00 0.00 0.00 0.00 0.00 0.00 0.00 0.00 0.00 0.00 0.00 0.00 0.00
0.03 0.02 0.01 0.01 0.01 0.01 0.04 0.04 0.02 0.02 0.04 0.04 0.05 0.02 0.06 0.08 0.04 0.02 0.01 0.01 0.01 0.00 0.00 0.00 0.00 0.00 0.00 0.00 0.00 0.00 0.00 0.00 0.00 0.00 0.00 0.00 0.00 0.00 0.00 0.00 0.00 0.00 0.00 0.00 0.00
0.07 0.07 0.09 0.11 0.08 0.07 0.09 0.04 0.01 0.02 0.03 0.01 0.00 0.00 0.01 0.01 0.01 0.03 0.01 0.01 0.00 0.00 0.00 0.00 0.00 0.00 0.00 0.00 0.00 0.00 0.00 0.00 0.00 0.00 0.00 0.00 0.00 0.00 0.00 0.00 0.00 0.00 0.00 0.00 0.00
0.00 0.01 0.01 0.01 0.01 0.03 0.02 0.00 0.00 0.00 0.01 0.00 0.00 0.00 0.00 0.00 0.00 0.00 0.00 0.00 0.00 0.00 0.00 0.00 0.00 0.00 0.00 0.00 0.00 0.00 0.00 0.00 0.00 0.00 0.00 0.00 0.00 0.00 0.01 0.00 0.00 0.00 0.00 0.00 0.00
MSLP
1019.26 1018.94 1018.62 1018.27 1017.92 1017.53 1017.16 1016.68 1016.20 1015.77 1015.34 1014.96 1014.65 1014.24 1013.79 1013.37 1012.94 1012.72 1011.89 1010.67 1010.58 1010.26 1010.42 1010.87 1011.03 1011.26 1011.51 1012.06 1012.42 1013.08 1014.19 1014.40 1013.35 1012.58 1011.32 1010.58 1010.24 1009.62 1009.33 1009.28 1009.15 1008.84 1008.76 1008.74 1008.46
1019.25 1018.94 1018.61 1018.26 1017.88 1017.46 1016.98 1016.55 1016.12 1015.64 1015.12 1014.62 1014.32 1013.97 1013.59 1013.27 1013.07 1012.03 1010.49 1010.29 1010.32 1010.34 1010.71 1011.01 1011.37 1011.53 1012.10 1012.41 1012.81 1013.28 1014.29 1013.55 1012.57 1011.85 1011.28 1010.85 1010.67 1010.31 1009.90 1009.48 1009.30 1008.97 1008.68 1008.90 1008.85
1019.24 1018.97 1018.67 1018.30 1017.89 1017.43 1016.95 1016.50 1016.05 1015.50 1014.99 1014.49 1014.13 1013.85 1013.43 1013.30 1012.82 1010.87 1010.03 1010.11 1010.17 1010.41 1010.77 1011.05 1011.40 1011.72 1012.30 1012.62 1013.00 1013.40 1013.36 1012.88 1012.08 1011.70 1011.43 1011.12 1010.80 1010.46 1010.25 1009.52 1009.49 1009.31 1009.05 1009.01 1009.31
1019.31 1019.03 1018.66 1018.23 1017.81 1017.36 1016.84 1016.37 1015.90 1015.34 1014.80 1014.38 1014.00 1013.67 1013.31 1013.29 1012.31 1010.46 1010.10 1010.11 1010.15 1010.50 1010.90 1011.27 1011.71 1012.21 1012.61 1012.83 1012.85 1013.29 1012.96 1012.72 1012.03 1011.50 1011.37 1011.17 1010.69 1010.54 1010.27 1009.34 1009.24 1009.16 1009.13 1009.19 1009.41
1019.28 1018.95 1018.60 1018.20 1017.79 1017.28 1016.65 1016.06 1015.49 1014.90 1014.47 1014.11 1013.86 1013.58 1013.24 1012.73 1011.12 1010.20 1010.14 1010.17 1010.42 1010.73 1011.01 1011.34 1011.82 1012.35 1012.84 1013.01 1013.06 1013.23 1012.91 1012.53 1011.98 1011.82 1011.51 1011.18 1010.88 1010.69 1010.10 1009.30 1009.04 1009.11 1009.15 1009.11 1009.06
1019.22 1018.94 1018.63 1018.21 1017.68 1017.02 1016.31 1015.67 1015.06 1014.39 1013.96 1013.50 1013.54 1013.55 1013.25 1012.16 1010.14 1010.18 1010.33 1010.52 1010.64 1010.91 1011.18 1011.37 1011.49 1011.67 1012.19 1012.59 1012.99 1012.95 1012.75 1012.45 1011.99 1011.56 1011.34 1011.08 1010.72 1010.71 1009.45 1009.44 1009.19 1009.05 1009.01 1008.81 1008.84
1019.18 1018.91 1018.58 1018.16 1017.50 1016.75 1015.93 1015.19 1014.65 1013.99 1013.45 1013.06 1013.44 1013.66 1013.08 1011.15 1010.32 1010.46 1010.48 1010.51 1010.57 1010.68 1010.96 1011.03 1011.25 1011.88 1012.39 1012.64 1012.68 1012.70 1013.01 1012.56 1011.78 1011.37 1011.19 1011.02 1010.93 1010.52 1009.70 1009.59 1009.39 1009.32 1009.24 1009.10 1008.94
1019.12 1018.82 1018.46 1017.96 1017.24 1016.46 1015.53 1014.73 1014.21 1013.75 1013.47 1013.35 1013.54 1013.68 1012.39 1010.68 1010.50 1010.53 1010.57 1010.51 1010.60 1010.78 1010.85 1010.92 1011.22 1011.76 1012.28 1012.67 1012.97 1013.37 1013.46 1013.11 1011.99 1011.52 1011.22 1011.38 1011.13 1010.53 1010.17 1009.98 1009.73 1009.31 1009.00 1008.85 1008.52
1018.99 1018.71 1018.35 1017.89 1017.26 1016.49 1015.28 1014.32 1013.55 1013.30 1013.33 1013.41 1013.57 1013.39 1011.71 1010.32 1010.40 1010.40 1010.40 1010.43 1010.38 1010.52 1010.68 1011.00 1011.36 1012.19 1012.79 1013.65 1014.34 1014.45 1014.13 1013.70 1012.96 1012.06 1011.87 1011.70 1011.56 1011.01 1010.40 1010.28 1010.07 1009.41 1008.74 1008.50 1008.07
1018.91 1018.79 1018.51 1018.08 1017.35 1016.46 1015.09 1013.90 1013.68 1013.54 1013.46 1013.37 1013.35 1013.65 1011.86 1011.20 1010.84 1010.57 1010.42 1010.40 1010.54 1010.78 1011.07 1011.37 1012.10 1012.78 1013.65 1014.23 1014.50 1014.49 1014.59 1014.10 1013.61 1012.67 1012.15 1012.21 1011.45 1011.22 1010.78 1010.58 1010.02 1009.61 1008.95 1008.51 1008.29
1018.77 1018.71 1018.49 1018.11 1017.47 1016.61 1015.63 1014.42 1014.76 1014.36 1014.35 1014.40 1013.94 1013.48 1012.46 1011.83 1011.39 1011.08 1010.91 1010.94 1011.24 1011.78 1012.31 1012.59 1013.34 1013.24 1013.43 1013.53 1014.00 1014.32 1014.46 1014.37 1013.82 1013.11 1012.98 1012.56 1011.61 1011.13 1010.52 1010.33 1010.01 1009.56 1009.08 1008.80 1008.32
1018.69 1018.57 1018.46 1018.20 1017.73 1017.07 1016.63 1017.43 1018.30 1018.37 1016.22 1013.95 1013.61 1013.36 1012.82 1012.72 1012.07 1011.17 1010.83 1011.37 1011.92 1012.58 1013.11 1013.66 1013.34 1013.16 1013.34 1013.74 1014.03 1014.25 1014.53 1014.29 1013.30 1012.48 1012.79 1012.30 1011.37 1010.99 1010.61 1010.01 1009.84 1010.34 1010.24 1009.57 1008.57
1018.58 1018.51 1018.52 1018.17 1017.72 1017.64 1018.21 1018.58 1018.46 1018.33 1017.71 1014.06 1013.08 1012.54 1012.05 1012.30 1012.29 1011.86 1011.61 1011.78 1012.32 1013.33 1014.05 1014.41 1013.75 1013.20 1013.61 1014.03 1014.61 1014.63 1014.38 1013.89 1013.62 1012.85 1012.37 1012.25 1011.13 1010.54 1010.23 1010.07 1010.23 1010.65 1011.22 1010.69 1010.10
1018.69 1018.67 1018.69 1018.31 1018.21 1018.75 1018.59 1018.43 1018.25 1018.20 1017.50 1014.06 1012.74 1011.88 1011.69 1011.83 1012.05 1011.90 1012.03 1012.45 1012.96 1013.36 1013.91 1014.23 1013.72 1013.57 1013.53 1013.49 1013.76 1014.24 1013.72 1013.57 1013.51 1013.57 1013.32 1012.71 1012.36 1011.35 1010.94 1010.73 1011.24 1011.64 1011.81 1011.38 1010.79
1018.79 1018.75 1018.95 1018.75 1019.43 1019.18 1019.01 1018.48 1018.34 1018.50 1016.79 1013.64 1012.33 1011.46 1011.65 1012.23 1012.55 1012.43 1012.61 1012.46 1013.15 1013.71 1014.23 1014.04 1014.00 1014.05 1013.90 1013.58 1013.39 1013.42 1013.08 1013.60 1013.87 1013.89 1013.73 1013.40 1013.85 1011.49 1011.57 1011.68 1012.61 1012.82 1012.57 1011.97 1011.23
1018.59 1018.69 1018.98 1019.15 1019.44 1019.01 1018.61 1018.35 1018.15 1018.29 1015.90 1013.52 1012.63 1012.30 1012.53 1012.96 1013.24 1013.18 1013.16 1013.18 1013.66 1014.09 1014.49 1014.62 1014.51 1014.82 1014.76 1014.22 1013.86 1013.61 1013.90 1013.99 1014.08 1014.81 1014.67 1013.75 1014.02 1013.13 1013.12 1013.88 1014.15 1013.79 1013.09 1012.36 1011.34
1018.49 1018.63 1018.95 1018.91 1019.09 1018.78 1018.63 1018.65 1018.91 1017.63 1014.88 1014.31 1013.87 1013.47 1013.58 1013.79 1013.93 1014.03 1014.55 1015.02 1015.25 1015.39 1015.42 1015.40 1015.69 1015.88 1015.79 1015.26 1014.74 1014.73 1014.84 1015.49 1015.79 1015.87 1015.04 1014.43 1014.77 1013.95 1014.56 1015.11 1015.59 1015.29 1014.05 1012.76 1011.62
1018.18 1018.45 1018.69 1018.72 1018.80 1018.84 1018.73 1019.17 1019.14 1016.88 1015.79 1014.77 1014.42 1014.25 1014.60 1015.06 1015.25 1015.36 1015.71 1016.28 1016.39 1016.49 1016.76 1016.71 1016.70 1016.71 1016.70 1016.49 1016.49 1016.39 1016.41 1016.87 1017.03 1017.07 1016.49 1015.68 1015.16 1014.96 1015.30 1015.38 1015.61 1015.47 1014.68 1013.06 1012.12
1017.99 1018.91 1019.13 1018.63 1018.73 1018.92 1019.23 1019.51 1017.72 1016.61 1015.89 1015.70 1015.33 1015.11 1015.41 1015.56 1015.73 1016.04 1016.62 1016.77 1016.88 1017.17 1017.32 1017.41 1017.62 1017.55 1017.48 1017.24 1017.21 1017.32 1017.52 1018.02 1018.32 1018.85 1018.30 1016.88 1015.93 1015.72 1015.23 1015.09 1015.13 1014.95 1014.63 1013.84 1012.98
1018.42 1018.80 1019.09 1018.65 1018.50 1019.13 1019.54 1018.74 1017.57 1016.45 1015.65 1015.40 1015.43 1015.45 1015.71 1015.99 1016.58 1016.49 1016.56 1016.83 1017.24 1017.48 1017.47 1017.65 1018.22 1018.38 1017.92 1017.70 1018.02 1018.38 1018.66 1018.96 1019.59 1020.40 1020.04 1018.22 1017.25 1016.16 1016.48 1016.13 1015.84 1015.33 1014.83 1014.55 1013.77
1018.22 1018.85 1018.93 1018.49 1018.43 1019.24 1019.25 1018.00 1016.75 1016.11 1016.19 1016.30 1015.88 1015.86 1016.13 1016.28 1016.66 1017.12 1016.76 1017.35 1017.21 1018.04 1017.98 1018.15 1018.75 1019.02 1018.59 1019.19 1019.61 1019.74 1019.82 1020.19 1020.81 1021.84 1021.64 1020.72 1018.09 1017.08 1017.23 1016.77 1016.57 1016.06 1015.44 1014.81 1014.17
1018.58 1019.40 1019.45 1018.71 1018.97 1018.77 1018.75 1017.64 1016.50 1015.93 1016.20 1016.30 1016.21 1016.01 1016.16 1016.45 1016.66 1017.11 1016.92 1016.77 1016.92 1017.79 1018.33 1018.77 1018.99 1019.78 1020.33 1020.30 1020.43 1020.45 1020.93 1021.26 1022.21 1023.28 1023.21 1022.72 1019.41 1017.74 1017.61 1017.14 1016.57 1016.06 1015.45 1014.81 1014.13
1018.80 1019.50 1019.74 1019.69 1019.67 1019.53 1018.69 1017.81 1017.17 1016.52 1016.67 1016.91 1016.79 1016.58 1016.72 1016.93 1017.79 1017.77 1017.47 1017.60 1017.55 1017.99 1018.40 1018.59 1019.54 1020.37 1021.13 1021.19 1021.06 1021.47 1021.95 1022.32 1023.21 1024.05 1023.87 1023.63 1019.60 1017.86 1017.33 1017.01 1016.11 1015.63 1015.55 1014.87 1014.21
1018.85 1020.12 1020.32 1020.45 1020.31 1019.93 1019.25 1018.19 1017.67 1017.25 1017.29 1017.23 1017.58 1018.09 1018.11 1018.23 1018.45 1018.70 1018.80 1018.77 1018.53 1018.58 1018.85 1019.30 1020.06 1020.23 1020.40 1020.91 1021.47 1022.14 1022.49 1022.93 1023.77 1025.08 1024.21 1022.58 1020.29 1019.80 1018.92 1018.25 1017.11 1016.01 1015.63 1015.00 1014.31
1019.03 1019.63 1019.61 1020.25 1020.32 1020.23 1019.84 1019.26 1018.47 1018.24 1018.33 1018.38 1018.65 1018.42 1018.98 1018.96 1018.85 1019.07 1018.85 1019.19 1019.25 1018.91 1019.58 1020.06 1020.92 1021.59 1021.07 1021.28 1021.74 1022.22 1022.25 1022.80 1023.60 1023.58 1024.00 1021.97 1021.16 1019.29 1018.52 1017.63 1016.47 1015.72 1015.13 1014.67 1013.76
1019.73 1019.68 1020.54 1020.60 1020.07 1020.26 1019.99 1019.24 1018.88 1018.51 1018.95 1018.86 1018.73 1018.04 1018.30 1018.86 1018.48 1018.61 1018.84 1019.09 1019.22 1019.38 1020.31 1020.86 1021.85 1022.50 1022.55 1022.24 1022.18 1021.75 1021.68 1022.03 1022.34 1022.60 1022.66 1021.75 1020.14 1018.97 1017.78 1016.91 1015.89 1015.02 1014.50 1014.07 1013.22
1020.14 1020.46 1020.24 1020.19 1020.22 1020.72 1019.64 1018.43 1018.12 1018.14 1017.91 1017.82 1018.44 1018.06 1018.17 1017.89 1018.58 1018.75 1018.79 1018.76 1019.07 1019.40 1020.71 1021.62 1022.51 1023.34 1023.67 1023.34 1022.55 1021.69 1020.33 1020.52 1020.84 1021.00 1021.03 1020.58 1019.30 1018.46 1017.20 1016.25 1014.89 1014.02 1013.63 1013.27 1012.54
Thickness
5715 5720 5722 5725 5727 5730 5732 5736 5740 5743 5746 5748 5750 5752 5755 5758 5760 5760 5762 5773 5773 5774 5771 5765 5761 5756 5753 5745 5743 5735 5706 5698 5716 5715 5730 5745 5739 5750 5754 5748 5747 5753 5753 5758 5766
5713 5717 5719 5722 5725 5728 5732 5735 5738 5742 5745 5748 5749 5751 5753 5755 5755 5758 5773 5773 5771 5769 5762 5755 5747 5748 5735 5736 5732 5719 5696 5708 5723 5729 5732 5734 5734 5736 5741 5739 5740 5745 5753 5753 5757
5712 5714 5717 5720 5722 5726 5729 5732 5736 5739 5742 5745 5748 5749 5751 5751 5751 5762 5772 5770 5768 5764 5759 5753 5747 5741 5730 5729 5723 5714 5706 5717 5726 5727 5730 5728 5725 5734 5730 5731 5732 5735 5741 5747 5746
5710 5712 5714 5717 5720 5723 5727 5730 5733 5737 5740 5742 5744 5746 5747 5746 5739 5762 5766 5765 5762 5758 5751 5742 5734 5724 5717 5714 5720 5709 5714 5716 5723 5728 5724 5721 5729 5725 5724 5737 5741 5733 5736 5738 5736
5707 5710 5712 5715 5717 5721 5726 5729 5733 5736 5739 5740 5741 5741 5742 5739 5744 5760 5759 5757 5754 5749 5741 5734 5725 5718 5707 5708 5710 5704 5709 5714 5717 5715 5714 5716 5713 5716 5724 5731 5730 5731 5730 5730 5730
5705 5706 5708 5710 5714 5718 5723 5727 5730 5735 5737 5739 5737 5735 5734 5728 5755 5753 5752 5748 5744 5738 5732 5728 5724 5722 5713 5708 5703 5706 5705 5705 5709 5710 5711 5710 5710 5710 5722 5720 5722 5722 5720 5724 5724
5700 5702 5704 5706 5710 5716 5722 5726 5728 5732 5734 5736 5731 5728 5726 5731 5747 5745 5744 5740 5739 5735 5726 5728 5725 5713 5707 5699 5705 5704 5694 5695 5702 5706 5705 5704 5700 5700 5714 5713 5707 5705 5707 5710 5712
5696 5697 5699 5702 5706 5712 5718 5724 5727 5729 5729 5727 5722 5718 5717 5739 5739 5737 5735 5732 5731 5727 5724 5723 5719 5709 5702 5700 5690 5684 5679 5673 5694 5698 5697 5694 5678 5695 5700 5699 5698 5700 5701 5703 5704
5690 5691 5694 5696 5700 5705 5713 5720 5725 5724 5722 5719 5715 5712 5714 5736 5730 5731 5730 5724 5724 5722 5720 5718 5710 5695 5690 5670 5658 5659 5654 5660 5669 5686 5680 5679 5669 5683 5687 5684 5684 5688 5692 5692 5695
5684 5684 5685 5688 5693 5698 5707 5715 5715 5714 5712 5710 5708 5700 5715 5713 5719 5720 5722 5720 5713 5710 5704 5699 5685 5674 5663 5653 5639 5647 5643 5648 5648 5667 5668 5659 5665 5667 5670 5669 5673 5673 5674 5676 5679
5677 5677 5677 5679 5682 5688 5696 5703 5694 5698 5693 5694 5693 5692 5699 5706 5709 5706 5706 5702 5697 5688 5671 5674 5659 5653 5657 5652 5650 5647 5639 5633 5641 5648 5641 5644 5656 5659 5661 5657 5654 5658 5661 5661 5663
5669 5669 5668 5669 5671 5675 5677 5667 5660 5657 5664 5686 5688 5687 5689 5689 5687 5695 5699 5683 5675 5661 5659 5650 5643 5651 5650 5645 5636 5629 5623 5620 5633 5639 5628 5633 5647 5651 5652 5652 5647 5636 5638 5644 5654
5663 5662 5660 5662 5663 5663 5655 5652 5649 5648 5640 5677 5686 5686 5689 5684 5676 5676 5681 5671 5661 5646 5638 5627 5640 5645 5635 5627 5616 5610 5606 5609 5612 5623 5623 5619 5632 5645 5649 5642 5633 5624 5618 5623 5629
5652 5651 5649 5651 5651 5643 5645 5643 5642 5640 5631 5666 5676 5682 5681 5678 5667 5671 5665 5659 5647 5635 5629 5621 5629 5628 5620 5615 5609 5597 5606 5606 5604 5596 5591 5607 5586 5627 5631 5626 5614 5607 5603 5608 5615
5644 5642 5639 5637 5629 5632 5633 5634 5631 5624 5621 5663 5663 5673 5667 5658 5651 5653 5650 5648 5631 5626 5619 5612 5614 5610 5607 5606 5604 5598 5605 5596 5592 5582 5582 5586 5565 5606 5614 5612 5592 5587 5591 5597 5605
5635 5633 5628 5624 5620 5622 5624 5624 5623 5611 5612 5646 5649 5644 5643 5636 5633 5631 5629 5626 5619 5610 5603 5597 5597 5587 5584 5587 5587 5586 5583 5577 5575 5565 5557 5579 5564 5582 5593 5575 5568 5572 5580 5589 5597
5625 5622 5618 5616 5613 5612 5611 5608 5595 5594 5632 5628 5624 5625 5620 5617 5617 5611 5601 5590 5589 5585 5580 5579 5571 5563 5564 5565 5570 5565 5563 5538 5543 5540 5551 5569 5553 5569 5556 5552 5548 5552 5567 5577 5587
5618 5614 5610 5607 5604 5601 5599 5591 5577 5604 5604 5611 5607 5605 5599 5594 5594 5588 5580 5570 5561 5562 5548 5552 5550 5538 5542 5543 5538 5540 5539 5530 5525 5522 5529 5544 5544 5557 5543 5544 5541 5545 5553 5569 5576
5609 5600 5597 5596 5592 5588 5585 5566 5580 5589 5597 5588 5587 5580 5580 5577 5570 5567 5559 5549 5545 5541 5542 5521 5531 5528 5528 5528 5528 5524 5514 5513 5504 5496 5487 5518 5536 5536 5539 5538 5540 5540 5543 5550 5559
5592 5588 5585 5583 5580 5571 5562 5571 5576 5585 5583 5577 5571 5568 5557 5555 5549 5545 5536 5536 5529 5526 5519 5510 5509 5505 5514 5516 5509 5502 5500 5501 5485 5463 5485 5497 5509 5525 5507 5516 5521 5524 5530 5535 5544
5577 5571 5571 5569 5563 5552 5542 5550 5568 5573 5564 5551 5551 5547 5539 5536 5525 5524 5529 5513 5514 5506 5505 5496 5491 5491 5495 5483 5473 5475 5469 5468 5467 5450 5447 5470 5497 5498 5489 5498 5502 5507 5512 5518 5528
5555 5558 5549 5550 5539 5537 5536 5546 5561 5559 5546 5535 5530 5533 5529 5521 5509 5504 5502 5507 5501 5495 5490 5478 5469 5469 5462 5459 5458 5465 5453 5446 5430 5429 5418 5399 5447 5485 5468 5479 5487 5489 5494 5504 5513
5539 5528 5525 5523 5512 5496 5513 5523 5530 5534 5528 5518 5514 5514 5501 5503 5490 5482 5488 5483 5480 5477 5470 5468 5448 5440 5437 5445 5445 5439 5436 5434 5416 5399 5390 5388 5443 5470 5465 5461 5470 5471 5468 5475 5486
5515 5505 5497 5496 5491 5492 5498 5506 5506 5493 5498 5495 5484 5475 5469 5461 5462 5448 5462 5457 5459 5460 5466 5454 5429 5439 5441 5436 5413 5406 5412 5410 5396 5361 5363 5407 5422 5426 5422 5418 5431 5441 5436 5443 5458
5494 5489 5484 5474 5475 5470 5466 5467 5477 5473 5460 5454 5448 5452 5448 5441 5439 5441 5451 5447 5443 5448 5437 5436 5420 5415 5422 5422 5417 5412 5416 5407 5375 5373 5364 5403 5390 5402 5403 5405 5414 5421 5422 5428 5446
5470 5462 5448 5443 5446 5444 5443 5446 5445 5450 5441 5434 5436 5445 5438 5426 5437 5430 5437 5432 5433 5426 5419 5408 5401 5398 5397 5401 5404 5409 5412 5407 5400 5387 5369 5376 5386 5393 5401 5397 5400 5407 5411 5419 5433
5438 5435 5436 5440 5433 5424 5433 5438 5437 5438 5433 5435 5426 5427 5428 5432 5427 5423 5420 5424 5422 5414 5401 5398 5388 5375 5372 5381 5389 5395 5406 5401 5397 5385 5380 5375 5394 5390 5394 5394 5400 5408 5408 5414 5428